Voltar ao catálogo

BREEZE-M DEB

AtivoHEO
NORAD 38572·DEBRIS·🇷🇺 Russia

Lançado Mar 14, 2008 de Baikonur Cosmodrome

Loading…

Próximas Passagens (próximas 24 horas)

TLE

AtualizadoSource: Space-Track

Época: Sep 9, 2026, 14:48 UTC

1 38572U 08011T   26252.61721028  .00000008  00000-0  00000-0 0  9997
2 38572  48.6491  78.2372 6246879 192.5113 138.9354  3.03184233173654

Acompanhe BREEZE-M DEB em tempo real com AllMySat

Download on the App Store